Date,TemperatureHighF,TemperatureAvgF,TemperatureLowF,DewpointHighF,DewpointAvgF,DewpointLowF,HumidityHigh,HumidityAvg,HumidityLow,PressureMaxIn,PressureMinIn,WindSpeedMaxMPH,WindSpeedAvgMPH,GustSpeedMaxMPH,PrecipitationSumIn
2013-5-1,79.2,67.3,56.3,63.1,59.2,55.7,99,78,48,30.15,30.05,10,1,10,0.00
2013-5-2,78.6,67.1,54.0,62.9,57.7,52.6,97,73,52,30.15,30.05,11,1,11,0.00
2013-5-3,75.4,65.7,59.3,59.2,55.7,52.3,91,71,49,30.09,29.92,21,2,21,0.04
2013-5-4,64.6,56.7,52.2,55.4,53.2,48.8,100,90,62,29.93,29.85,14,2,14,1.96
2013-5-5,59.4,52.4,47.6,59.0,52.3,47.6,100,100,98,29.86,29.75,21,2,21,1.60
2013-5-6,59.1,51.7,44.2,51.7,49.3,44.1,100,92,70,29.90,29.77,16,2,16,0.17
2013-5-7,72.6,58.0,46.1,60.0,52.1,45.8,100,83,49,29.96,29.87,13,1,13,0.03
2013-5-8,75.6,62.6,51.8,64.3,57.7,51.4,100,86,54,30.03,29.92,13,2,13,0.02
2013-5-9,81.2,67.2,54.5,66.6,59.0,54.5,100,79,43,30.08,29.97,11,1,11,0.01
2013-5-10,74.2,66.2,56.1,63.4,59.4,55.8,99,80,57,30.04,29.90,21,4,21,0.00
2013-5-11,74.5,66.6,58.2,66.8,61.2,53.0,97,83,68,29.97,29.84,16,4,16,0.17
2013-5-12,65.3,57.6,47.3,53.8,41.8,32.5,97,60,31,30.13,29.96,20,4,20,0.00
2013-5-13,68.0,53.2,38.2,46.0,39.2,30.1,99,66,28,30.25,30.12,19,2,19,0.00
2013-5-14,79.6,60.5,40.7,59.3,49.7,39.8,100,72,43,30.24,30.02,21,4,21,0.00
2013-5-15,85.7,72.1,57.6,62.4,57.9,53.7,92,64,36,30.13,29.94,13,3,13,0.00
2013-5-16,82.7,69.1,56.4,66.8,60.7,55.6,98,77,43,30.04,29.91,14,2,14,0.00
2013-5-17,80.8,70.0,60.2,67.1,62.8,59.4,98,80,57,30.05,29.96,15,2,15,0.07
2013-5-18,76.4,69.2,64.5,70.5,66.6,63.6,100,92,80,30.03,29.95,19,4,19,0.32
2013-5-19,72.2,67.4,60.5,69.8,66.0,60.1,99,95,90,30.06,29.91,24,3,24,0.92
2013-5-20,84.0,68.5,57.4,72.0,64.1,57.1,100,88,61,30.10,29.95,11,1,11,0.01
2013-5-21,86.9,72.3,61.5,73.9,67.2,61.2,100,86,58,30.01,29.85,26,2,26,0.00
2013-5-22,84.5,71.5,63.9,71.4,66.5,63.3,99,86,53,29.92,29.79,24,3,24,0.18
2013-5-23,81.8,70.8,60.8,68.0,62.6,56.5,100,78,47,29.98,29.86,19,3,19,0.01
2013-5-24,72.5,63.6,53.9,57.6,50.9,43.8,97,66,37,30.23,29.98,22,4,22,0.00
2013-5-25,78.8,61.4,46.0,57.0,48.6,42.6,98,68,32,30.32,30.14,10,1,10,0.00
2013-5-26,81.0,64.6,50.5,59.8,53.3,44.6,99,72,31,30.26,30.13,10,1,10,0.00
2013-5-27,84.0,68.8,53.7,64.7,59.2,53.1,99,75,43,30.20,30.05,15,2,15,0.00
2013-5-28,84.8,73.7,61.7,65.9,61.9,55.3,96,69,37,30.14,30.03,20,4,20,0.00
2013-5-29,85.4,75.1,64.0,63.4,60.6,56.8,87,62,42,30.17,30.04,15,4,15,0.00
2013-5-30,82.5,74.4,63.8,66.1,62.9,60.1,91,68,53,30.18,30.03,12,3,12,0.00
2013-5-31,83.9,76.1,67.9,64.8,63.0,60.9,81,65,48,30.13,30.00,18,5,18,0.00